Weather History for Haines, AK

Change the Weather History Date:

Tuesday, June 25, 2013

  Actual Average Record
Temperature  
Mean Temperature 62 °F -  
Max Temperature 70 °F 63 °F 88 °F (1982)
Min Temperature 57 °F 48 °F 43 °F (1979)
Degree Days  
Heating Degree Days 2    
Growing Degree Days 12 (Base 50)    
Moisture  
Dew Point 58 °F    
Average Humidity 86    
Maximum Humidity 100    
Minimum Humidity 70    
Precipitation  
Precipitation 0.00 in - - ()
Sea Level Pressure  
Sea Level Pressure 29.57 in    
Wind  
Wind Speed 11 mph (WNW)    
Max Wind Speed 17 mph    
Max Gust Speed 24 mph    
Visibility 9 miles    
Events Rain    
Averages and records for this station are not official NWS values.
T = Trace of Precipitation, MM = Missing Value Source: NWS Daily Summary

Daily Weather History Graph

Daily Weather History Graph

Search for Another Location

Airport:

Trip Planner

Search our weather history database for the weather conditions in past years. The results will help you decide how hot, cold, wet, or windy it might be!

Date:

Astronomy

Jun. 25, 2013 Rise Set
Actual Time 3:47 AM AKDT 10:21 PM AKDT
Civil Twilight 2:18 AM AKDT 11:50 PM AKDT
Nautical Twilight Sun does not rise Sun does not rise
Astronomical Twilight Sun does not rise Sun does not rise
Moon 11:07 PM AKDT (6/25) 7:29 AM AKDT (6/25)
Length of Visible Light 21h 32m
Length of Day
18h 33m
Waning Gibbous, 92% of the Moon is Illuminated
Jun 25
Waning Gibbous
Jun 29
Last Quarter
Jul 7
New
Jul 15
First Quarter
Jul 22
Full

Hourly Weather History & Observations

Time (AKDT) Temp. Dew Point Humidity Pressure Visibility Wind Dir Wind Speed Gust Speed Precip Events Conditions
12:54 AM 63.0 °F 60.1 °F 90% 29.56 in 10.0 mi NW 17.3 mph 24.2 mph 0.00 in   Clear
1:54 AM 62.1 °F 59.0 °F 90% 29.55 in 10.0 mi WNW 15.0 mph - N/A   Clear
2:54 AM 62.1 °F 59.0 °F 90% 29.55 in 10.0 mi NW 13.8 mph - N/A   Clear
3:54 AM 60.1 °F 57.9 °F 93% 29.56 in 10.0 mi NW 12.7 mph 24.2 mph N/A   Clear
4:54 AM 61.0 °F 57.0 °F 87% 29.56 in 10.0 mi WNW 17.3 mph 23.0 mph N/A   Clear
5:23 AM 57.2 °F 57.2 °F 100% 29.56 in 8.0 mi WNW 13.8 mph - N/A   Partly Cloudy
5:54 AM 57.9 °F 57.0 °F 97% 29.58 in 8.0 mi WNW 11.5 mph - N/A   Partly Cloudy
6:09 AM 57.2 °F 57.2 °F 100% 29.57 in 2.5 mi WNW 11.5 mph - N/A   Mostly Cloudy
6:25 AM 57.2 °F 57.2 °F 100% 29.57 in 8.0 mi WNW 9.2 mph - N/A   Mostly Cloudy
6:52 AM 60.8 °F 57.2 °F 88% 29.57 in 10.0 mi WNW 8.1 mph - N/A   Scattered Clouds
6:54 AM 60.1 °F 57.9 °F 93% 29.58 in 10.0 mi WNW 9.2 mph - N/A   Scattered Clouds
7:31 AM 59.0 °F 57.2 °F 94% 29.59 in 2.5 mi NW 6.9 mph - N/A   Mostly Cloudy
7:40 AM 59.0 °F 57.2 °F 94% 29.59 in 7.0 mi NNW 9.2 mph - N/A   Mostly Cloudy
7:52 AM 60.8 °F 57.2 °F 88% 29.59 in 10.0 mi WNW 6.9 mph - N/A   Scattered Clouds
7:54 AM 60.1 °F 57.9 °F 93% 29.60 in 10.0 mi WNW 5.8 mph - N/A   Partly Cloudy
8:40 AM 59.0 °F 57.2 °F 94% 29.59 in 2.0 mi WNW 3.5 mph - N/A   Mostly Cloudy
8:46 AM 60.8 °F 57.2 °F 88% 29.59 in 4.0 mi West 5.8 mph - N/A   Mostly Cloudy
8:54 AM 60.1 °F 57.9 °F 93% 29.60 in 10.0 mi West 4.6 mph - N/A   Mostly Cloudy
9:54 AM 64.0 °F 60.1 °F 87% 29.59 in 10.0 mi WNW 5.8 mph - N/A   Clear
10:54 AM 66.0 °F 60.1 °F 81% 29.59 in 10.0 mi SW 4.6 mph - N/A   Clear
11:54 AM 66.9 °F 60.1 °F 79% 29.58 in 10.0 mi Variable 3.5 mph - N/A   Clear
12:54 PM 66.0 °F 59.0 °F 78% 29.58 in 10.0 mi SE 4.6 mph - N/A   Clear
1:54 PM 68.0 °F 59.0 °F 73% 29.55 in 10.0 mi SSE 3.5 mph - N/A   Clear
2:54 PM 68.0 °F 57.9 °F 70% 29.54 in 10.0 mi SE 5.8 mph - N/A   Clear
3:54 PM 63.0 °F 55.9 °F 78% 29.57 in 10.0 mi ESE 9.2 mph 17.3 mph N/A   Mostly Cloudy
4:54 PM 66.9 °F 57.0 °F 70% 29.54 in 10.0 mi Calm Calm - 0.00 in   Clear
5:54 PM 64.9 °F 59.0 °F 81% 29.52 in 10.0 mi NW 6.9 mph - 0.00 in Rain Light Rain
6:54 PM 63.0 °F 55.9 °F 78% 29.57 in 10.0 mi ESE 3.5 mph - 0.00 in   Mostly Cloudy
7:54 PM 66.0 °F 55.9 °F 70% 29.61 in 10.0 mi East 9.2 mph 17.3 mph 0.00 in Rain Light Rain
8:54 PM 63.0 °F 57.0 °F 81% 29.57 in 10.0 mi West 11.5 mph - 0.00 in   Mostly Cloudy
9:54 PM 64.9 °F 57.0 °F 75% 29.57 in 10.0 mi WNW 15.0 mph 19.6 mph N/A   Clear
10:54 PM 64.9 °F 57.9 °F 78% 29.57 in 10.0 mi WNW 12.7 mph - N/A   Clear
11:54 PM 64.9 °F 59.0 °F 81% 29.56 in 10.0 mi WNW 13.8 mph - N/A   Scattered Clouds